Weather History for KFIT - September, 2013

Change the Weather History Date:

Friday, September 13, 2013

  Actual Average (KORH) Record (KORH)
Temperature  
Mean Temperature 70 °F 62 °F  
Max Temperature 81 °F 71 °F 89 °F (1957)
Min Temperature 60 °F 54 °F 33 °F (1943)
Degree Days  
Heating Degree Days 0 4  
Month to date heating degree days 37  
Since 1 July heating degree days 76  
Cooling Degree Days 4 1  
Month to date cooling degree days 29  
Year to date cooling degree days 455  
Growing Degree Days 20 (Base 50)    
Moisture  
Dew Point 62 °F    
Average Humidity 78    
Maximum Humidity 94    
Minimum Humidity 54    
Precipitation  
Precipitation 0.05 in 0.13 in 2.57 in (1974)
Month to date precipitation 1.51  
Year to date precipitation 32.87  
Sea Level Pressure  
Sea Level Pressure 29.66 in    
Wind  
Wind Speed 4 mph (NW)    
Max Wind Speed 14 mph    
Max Gust Speed 20 mph    
Visibility 10 miles    
Events Rain    
T = Trace of Precipitation, MM = Missing Value Source: NWS Daily Summary

Daily Weather History Graph

Daily Weather History Graph

Search for Another Location

Airport or City:

Trip Planner

Search our weather history database for the weather conditions in past years. The results will help you decide how hot, cold, wet, or windy it might be!

Date:

Astronomy

Sep. 13, 2013 Rise Set
Actual Time 6:24 AM EDT 6:59 PM EDT
Civil Twilight 5:56 AM EDT 7:28 PM EDT
Nautical Twilight 5:23 AM EDT 8:01 PM EDT
Astronomical Twilight 4:48 AM EDT 8:36 PM EDT
Moon 2:52 PM EDT (9/13) No Moon Set
Length of Visible Light 13h 31m
Length of Day
12h 34m
First Quarter, 61% of the Moon is Illuminated
Sep 13
First Quarter
Sep 19
Full
Sep 26
Last Quarter
Oct 4
New
Oct 11
First Quarter

Hourly Weather History & Observations

Time (EDT) Temp. Dew Point Humidity Pressure Visibility Wind Dir Wind Speed Gust Speed Precip Events Conditions
12:06 AM 68.0 °F 66.2 °F 94% 29.69 in 10.0 mi South 4.6 mph - 0.01 in Rain Light Rain
12:22 AM 68.0 °F 66.2 °F 94% 29.69 in 9.0 mi SSE 5.8 mph - 0.01 in Rain Light Rain
12:52 AM 68.0 °F 64.9 °F 90% 29.68 in 10.0 mi Calm Calm - 0.02 in   Overcast
1:52 AM 68.0 °F 66.0 °F 93% 29.67 in 10.0 mi Calm Calm - N/A   Overcast
2:52 AM 68.0 °F 64.9 °F 90% 29.65 in 10.0 mi Calm Calm - N/A   Partly Cloudy
3:52 AM 66.9 °F 64.9 °F 93% 29.63 in 10.0 mi Calm Calm - N/A   Mostly Cloudy
4:52 AM 66.9 °F 64.9 °F 93% 29.62 in 10.0 mi Calm Calm - 0.00 in   Overcast
5:52 AM 66.9 °F 64.9 °F 93% 29.64 in 10.0 mi Calm Calm - 0.00 in   Overcast
6:52 AM 66.9 °F 64.9 °F 93% 29.65 in 10.0 mi Calm Calm - 0.00 in   Overcast
7:52 AM 68.0 °F 66.0 °F 93% 29.64 in 10.0 mi Calm Calm - 0.03 in   Overcast
8:52 AM 71.1 °F 66.0 °F 84% 29.64 in 10.0 mi NW 3.5 mph - N/A   Clear
9:23 AM 71.6 °F 64.4 °F 78% 29.65 in 10.0 mi WNW 6.9 mph - N/A   Mostly Cloudy
9:42 AM 71.6 °F 64.4 °F 78% 29.64 in 10.0 mi West 6.9 mph - N/A   Scattered Clouds
9:52 AM 73.0 °F 64.0 °F 73% 29.64 in 10.0 mi NNW 6.9 mph - N/A   Partly Cloudy
10:47 AM 73.4 °F 64.4 °F 73% 29.63 in 10.0 mi WNW 4.6 mph - N/A   Mostly Cloudy
10:52 AM 73.0 °F 64.0 °F 73% 29.63 in 10.0 mi NW 4.6 mph - N/A   Scattered Clouds
11:52 AM 77.0 °F 62.1 °F 60% 29.62 in 10.0 mi West 5.8 mph - N/A   Clear
12:52 PM 78.1 °F 61.0 °F 56% 29.60 in 10.0 mi WNW 9.2 mph - N/A   Scattered Clouds
1:52 PM 79.0 °F 61.0 °F 54% 29.60 in 10.0 mi NW 9.2 mph - N/A   Mostly Cloudy
2:52 PM 77.0 °F 62.1 °F 60% 29.60 in 10.0 mi WNW 13.8 mph 17.3 mph N/A   Partly Cloudy
3:52 PM 73.0 °F 59.0 °F 61% 29.62 in 10.0 mi NW 13.8 mph - N/A   Clear
4:52 PM 68.0 °F 59.0 °F 73% 29.65 in 10.0 mi NW 9.2 mph 19.6 mph 0.00 in Rain Light Rain
5:52 PM 70.0 °F 57.0 °F 63% 29.66 in 10.0 mi NNW 11.5 mph - 0.00 in   Clear
6:52 PM 66.0 °F 55.9 °F 70% 29.70 in 10.0 mi NW 11.5 mph - N/A   Mostly Cloudy
7:52 PM 64.0 °F 55.0 °F 73% 29.73 in 10.0 mi NNW 5.8 mph - N/A   Scattered Clouds
8:52 PM 62.1 °F 54.0 °F 75% 29.76 in 10.0 mi NW 4.6 mph - N/A   Mostly Cloudy
9:52 PM 61.0 °F 54.0 °F 78% 29.77 in 10.0 mi NNW 4.6 mph - N/A   Scattered Clouds
10:52 PM 60.1 °F 53.1 °F 78% 29.78 in 10.0 mi NNW 8.1 mph - N/A   Partly Cloudy
11:52 PM 60.1 °F 52.0 °F 75% 29.79 in 10.0 mi NW 8.1 mph - N/A   Mostly Cloudy